Find Kosmos-872

NORAD ID: 9589 Int'l Des: 1976-118 Owner: GUKOSR Country: SU operational
LEOCIRCULAR

Live Position

Loading 3D Globe...

About Kosmos-872

Description loading...

Upcoming Passes

Passes for default location (London). Set your location on the main map for personalized predictions.

Altitude History

Loading altitude history...

Two-Line Element Set

1 09589U 76118B 26106.25739461 -.00000034 00000-0 -10539-3 0 9996
2 09589 74.0323 48.3064 0042143 304.3540 207.7331 12.58109549266719
Epoch: Apr 16, 2026 • Age: 13 hours

Current Status

Altitude 1419.8 km
Velocity 7.16 km/s
Sub-Earth Point 10.86°N, 76°W
Type other

Most Searched